Location: Be Tobo
(6.6442°N, 10.6239°W)
Time: 01:18:02
(UTC+00:00)

ASTRO E2 - Pass Details

Date: 18 September 2020
Orbit: 509 x 515 km, 31.4° (Epoch: 21 October)

Event Time Altitude Azimuth Distance (km) Brightness Sun altitude
Rises 20:04:58 0° 311° (NW) 2,598 7.1 -21.8°
Reaches altitude 10° 20:07:15 10° 317° (NW) 1,715 5.9 -22.4°
Enters shadow 20:10:13 39° 355° (N) 773 3.6 -23.1°
